Location: Hochstatterhof
(48.7256°N, 10.3487°E)
Time: 01:58:56
(UTC+00:00)

Cosmos 2150 Rocket - Pass Details

Date: 26 September 2023
Orbit: 748 x 806 km, 74.0° (Epoch: 04 December)

Event Time Altitude Azimuth Distance (km) Brightness Sun altitude
Rises 04:20:28 0° 195° (SSW) 3,285 7.0 -9.0°
Reaches altitude 10° 04:22:52 10° 193° (SSW) 2,353 6.3 -8.6°
Maximum altitude 04:28:12 73° 110° (ESE) 823 4.4 -7.8°
Drops below altitude 10° 04:33:29 10° 26° (NNE) 2,331 7.0 -6.9°
Sets 04:35:51 0° 25° (NNE) 3,253 7.7 -6.5°
